Temp
-9 -9 -9 -9 -9 -9 -9 -10 -10 -10 -10 -10 -10 -10 -10 -10 -10 -10 -10 -10 -10 -10 -10 -10 -10 -10 -10 -10 -10 -10 -10 -10 -10 -10 -10 -11 -11 -10 -10 -11 -11 -11
-9 -9 -9 -9 -9 -9 -9 -9 -10 -10 -10 -10 -10 -10 -10 -10 -10 -10 -10 -10 -10 -10 -10 -10 -10 -10 -10 -10 -10 -10 -10 -10 -11 -11 -10 -11 -11 -10 -11 -11 -11 -11
-9 -9 -9 -9 -9 -9 -9 -9 -9 -9 -10 -10 -10 -10 -10 -10 -10 -10 -10 -10 -10 -10 -10 -10 -10 -10 -10 -10 -10 -10 -10 -11 -11 -11 -10 -10 -11 -11 -11 -11 -11 -11
-9 -9 -9 -9 -9 -9 -9 -9 -9 -9 -9 -10 -10 -10 -10 -10 -10 -10 -10 -10 -10 -10 -10 -10 -10 -10 -10 -10 -10 -10 -10 -11 -11 -11 -10 -10 -11 -11 -11 -11 -11 -11
-9 -9 -9 -9 -9 -9 -9 -9 -9 -9 -9 -10 -10 -10 -10 -10 -10 -10 -10 -10 -10 -10 -10 -10 -10 -10 -10 -10 -10 -10 -10 -10 -10 -10 -10 -10 -11 -11 -11 -11 -11 -11
-9 -9 -9 -9 -9 -9 -9 -9 -9 -9 -9 -10 -10 -10 -10 -10 -10 -10 -10 -10 -10 -10 -10 -10 -9 -9 -9 -9 -9 -9 -10 -10 -10 -10 -10 -10 -11 -11 -11 -11 -11 -11
-9 -9 -9 -9 -9 -9 -9 -9 -9 -9 -10 -10 -10 -10 -10 -10 -10 -10 -10 -10 -10 -10 -10 -9 -9 -9 -9 -9 -9 -9 -10 -10 -10 -10 -10 -10 -10 -11 -11 -11 -11 -11
-9 -9 -9 -9 -9 -9 -9 -9 -9 -9 -9 -10 -10 -10 -10 -10 -10 -10 -10 -9 -9 -9 -9 -9 -9 -9 -9 -9 -9 -9 -10 -10 -10 -10 -10 -10 -10 -11 -11 -11 -11 -11
-9 -9 -9 -9 -9 -9 -9 -9 -9 -9 -9 -9 -9 -10 -10 -10 -10 -10 -9 -9 -9 -9 -9 -9 -9 -9 -9 -9 -9 -9 -10 -10 -10 -10 -10 -10 -11 -11 -11 -11 -11 -11
-10 -9 -9 -9 -9 -9 -9 -9 -9 -9 -9 -9 -9 -9 -9 -9 -9 -9 -9 -9 -9 -10 -10 -10 -10 -10 -10 -10 -10 -10 -10 -10 -10 -10 -10 -11 -11 -11 -11 -11 -11 -11
-10 -9 -9 -9 -9 -9 -9 -9 -9 -9 -9 -9 -9 -9 -9 -9 -9 -9 -9 -9 -10 -10 -10 -10 -10 -10 -10 -10 -10 -10 -10 -10 -10 -10 -11 -11 -11 -11 -11 -11 -11 -11
-10 -10 -9 -9 -9 -9 -9 -9 -9 -9 -9 -9 -9 -9 -9 -9 -9 -9 -9 -10 -10 -10 -10 -10 -10 -10 -10 -10 -10 -10 -10 -10 -10 -11 -11 -11 -11 -11 -11 -11 -12 -12
-10 -10 -10 -9 -9 -9 -9 -9 -9 -9 -9 -9 -9 -9 -9 -9 -9 -9 -10 -9 -10 -10 -10 -10 -10 -10 -10 -10 -10 -10 -10 -11 -11 -11 -11 -11 -11 -11 -12 -12 -12 -12
-10 -10 -10 -10 -9 -9 -9 -9 -9 -9 -9 -9 -9 -9 -9 -9 -9 -9 -9 -9 -9 -9 -10 -10 -10 -10 -10 -10 -11 -11 -11 -11 -11 -11 -11 -11 -11 -12 -12 -12 -12 -12
-10 -10 -10 -10 -9 -9 -9 -9 -9 -9 -9 -9 -9 -9 -9 -9 -9 -9 -9 -9 -10 -10 -10 -10 -10 -10 -10 -11 -11 -11 -11 -11 -11 -11 -12 -12 -12 -12 -12 -12 -12 -12
-10 -10 -10 -10 -10 -9 -9 -9 -9 -9 -9 -9 -9 -9 -9 -9 -9 -9 -9 -10 -10 -10 -10 -10 -10 -10 -11 -11 -11 -11 -11 -11 -12 -12 -12 -12 -12 -12 -12 -12 -12 -12
-10 -10 -10 -10 -10 -10 -9 -9 -9 -9 -9 -9 -9 -9 -9 -9 -9 -9 -10 -10 -10 -10 -10 -10 -10 -11 -11 -11 -11 -11 -11 -12 -12 -12 -12 -12 -12 -12 -12 -12 -13 -13
-10 -10 -10 -10 -10 -10 -10 -10 -10 -10 -10 -9 -9 -9 -9 -9 -9 -10 -10 -10 -10 -10 -10 -10 -10 -11 -11 -11 -11 -11 -12 -12 -12 -12 -12 -12 -12 -12 -13 -13 -13 -13
-11 -11 -11 -10 -10 -10 -10 -10 -10 -10 -10 -10 -10 -10 -10 -10 -10 -10 -10 -10 -10 -10 -10 -10 -11 -11 -11 -11 -11 -12 -12 -12 -12 -12 -12 -12 -13 -13 -13 -13 -13 -13
-11 -11 -11 -11 -10 -10 -10 -10 -10 -10 -10 -10 -10 -10 -10 -10 -10 -10 -10 -10 -10 -10 -10 -10 -11 -11 -11 -11 -12 -12 -12 -12 -12 -13 -13 -13 -13 -13 -13 -13 -14 -14
-11 -11 -11 -11 -11 -11 -10 -10 -10 -10 -10 -10 -10 -10 -10 -10 -10 -10 -10 -10 -11 -11 -11 -11 -11 -11 -12 -12 -12 -12 -12 -13 -13 -13 -13 -13 -13 -13 -13 -14 -14 -14
-12 -11 -11 -11 -11 -11 -11 -11 -11 -11 -11 -11 -11 -11 -11 -11 -11 -11 -11 -11 -11 -11 -11 -11 -12 -12 -12 -12 -13 -13 -13 -13 -13 -13 -13 -13 -13 -13 -14 -14 -14 -14
-12 -12 -11 -11 -11 -11 -11 -11 -11 -11 -11 -11 -11 -11 -11 -11 -11 -11 -11 -11 -12 -12 -12 -12 -12 -13 -13 -13 -13 -14 -14 -14 -14 -14 -14 -14 -14 -14 -14 -14 -14 -15
-12 -12 -12 -12 -11 -11 -11 -11 -11 -11 -11 -11 -11 -11 -11 -11 -12 -12 -12 -12 -12 -12 -12 -12 -13 -13 -14 -14 -14 -14 -14 -14 -14 -14 -14 -14 -14 -14 -14 -14 -15 -15
-13 -13 -13 -12 -12 -12 -11 -12 -12 -11 -11 -11 -11 -11 -12 -12 -12 -12 -12 -12 -12 -12 -13 -13 -13 -14 -14 -14 -14 -15 -15 -14 -14 -14 -14 -14 -14 -14 -15 -15 -15 -15
-14 -13 -13 -13 -13 -13 -12 -12 -12 -12 -12 -12 -12 -12 -12 -12 -12 -12 -12 -12 -13 -13 -13 -13 -13 -14 -14 -14 -14 -15 -15 -15 -15 -14 -14 -15 -15 -15 -15 -15 -15 -16
Height
5813 5813 5813 5813 5813 5814 5814 5814 5814 5813 5813 5811 5811 5810 5809 5809 5808 5807 5807 5806 5806 5806 5805 5805 5804 5803 5802 5801 5801 5800 5799 5798 5797 5796 5795 5793 5792 5790 5789 5787 5786 5784
5808 5808 5808 5808 5808 5808 5808 5808 5808 5808 5807 5806 5806 5805 5804 5804 5803 5802 5801 5801 5800 5801 5800 5800 5800 5799 5798 5797 5796 5795 5795 5794 5793 5791 5790 5788 5787 5786 5784 5783 5781 5780
5803 5803 5803 5802 5802 5802 5802 5801 5801 5802 5802 5801 5801 5800 5800 5799 5798 5797 5796 5795 5795 5795 5795 5795 5794 5794 5793 5792 5791 5790 5790 5789 5788 5786 5785 5783 5782 5781 5780 5778 5777 5776
5799 5798 5798 5798 5797 5797 5796 5795 5796 5796 5796 5796 5796 5795 5795 5794 5793 5792 5791 5790 5790 5790 5790 5789 5789 5788 5788 5787 5786 5785 5785 5784 5782 5781 5780 5778 5777 5776 5775 5773 5772 5771
5794 5793 5793 5793 5793 5792 5791 5791 5791 5791 5791 5791 5791 5790 5789 5789 5788 5787 5787 5786 5786 5785 5784 5784 5783 5783 5782 5781 5781 5780 5779 5778 5777 5776 5775 5774 5772 5771 5770 5769 5768 5766
5789 5789 5789 5789 5788 5788 5787 5787 5787 5786 5786 5786 5785 5785 5784 5784 5783 5783 5782 5782 5781 5780 5780 5779 5778 5778 5777 5776 5775 5775 5774 5773 5772 5770 5770 5769 5767 5766 5765 5764 5763 5761
5784 5784 5784 5784 5784 5783 5783 5783 5782 5782 5781 5780 5780 5779 5779 5779 5778 5778 5777 5777 5776 5775 5775 5774 5773 5772 5772 5771 5770 5770 5769 5768 5766 5765 5765 5764 5763 5761 5760 5759 5757 5755
5779 5779 5779 5779 5779 5778 5778 5778 5777 5776 5775 5775 5774 5774 5774 5774 5773 5773 5772 5772 5771 5770 5770 5769 5768 5767 5766 5765 5765 5765 5764 5763 5761 5760 5759 5759 5758 5757 5755 5753 5751 5750
5774 5774 5773 5774 5773 5773 5773 5772 5771 5770 5770 5769 5769 5769 5768 5768 5768 5767 5767 5766 5766 5765 5765 5764 5763 5762 5761 5760 5759 5759 5758 5757 5756 5755 5754 5753 5752 5751 5749 5747 5746 5744
5768 5768 5768 5768 5768 5767 5767 5766 5765 5765 5764 5764 5764 5763 5763 5763 5762 5762 5761 5761 5760 5760 5759 5758 5757 5756 5755 5754 5754 5753 5752 5751 5750 5749 5748 5747 5746 5745 5743 5742 5740 5739
5763 5763 5763 5762 5762 5761 5761 5760 5760 5759 5759 5759 5758 5758 5757 5757 5756 5756 5755 5755 5755 5754 5753 5752 5751 5750 5749 5748 5747 5747 5746 5745 5744 5743 5742 5741 5740 5739 5737 5736 5734 5733
5756 5756 5756 5756 5756 5755 5755 5754 5754 5754 5754 5753 5753 5752 5751 5751 5750 5749 5749 5749 5748 5747 5747 5746 5745 5744 5743 5742 5741 5741 5740 5739 5738 5737 5736 5735 5734 5732 5731 5729 5728 5727
5749 5750 5750 5750 5750 5750 5749 5749 5749 5748 5748 5747 5746 5746 5745 5744 5744 5743 5742 5742 5742 5741 5741 5740 5739 5738 5737 5736 5736 5734 5733 5732 5731 5730 5729 5729 5727 5726 5725 5723 5722 5721
5743 5743 5744 5744 5744 5744 5743 5743 5742 5742 5741 5741 5740 5740 5739 5738 5738 5737 5736 5736 5736 5735 5735 5733 5733 5732 5731 5730 5729 5728 5727 5726 5725 5724 5723 5722 5721 5720 5718 5718 5717 5716
5736 5737 5737 5738 5738 5738 5737 5736 5736 5735 5735 5734 5734 5733 5732 5731 5731 5731 5730 5730 5729 5729 5728 5727 5726 5725 5724 5723 5722 5721 5720 5719 5719 5718 5717 5716 5715 5714 5712 5712 5711 5710
5729 5729 5730 5730 5730 5730 5729 5729 5729 5728 5727 5727 5726 5726 5725 5725 5724 5724 5724 5723 5722 5722 5721 5720 5719 5718 5717 5716 5715 5714 5713 5713 5713 5712 5711 5710 5709 5708 5707 5706 5705 5704
5722 5722 5722 5722 5721 5721 5721 5720 5720 5720 5720 5720 5719 5718 5718 5717 5717 5717 5716 5716 5715 5714 5714 5713 5713 5711 5710 5709 5708 5708 5707 5707 5706 5705 5705 5704 5702 5702 5701 5700 5699 5698
5714 5715 5714 5713 5713 5713 5712 5712 5712 5712 5712 5712 5711 5711 5710 5710 5710 5709 5709 5708 5707 5707 5706 5706 5705 5704 5703 5702 5702 5701 5700 5700 5700 5698 5698 5697 5696 5695 5695 5693 5692 5691
5707 5707 5707 5705 5705 5705 5705 5705 5705 5705 5705 5704 5704 5703 5703 5703 5702 5701 5701 5700 5700 5700 5699 5699 5698 5697 5696 5695 5695 5694 5693 5693 5692 5691 5691 5690 5689 5689 5688 5686 5685 5684
5700 5700 5699 5698 5698 5698 5698 5698 5698 5698 5697 5696 5696 5696 5695 5695 5694 5694 5693 5693 5692 5693 5692 5691 5690 5689 5689 5688 5687 5687 5686 5685 5685 5685 5684 5684 5682 5682 5681 5679 5678 5677
5692 5692 5692 5692 5692 5692 5692 5691 5691 5690 5690 5689 5689 5688 5688 5687 5687 5686 5686 5685 5685 5685 5685 5684 5683 5682 5682 5681 5680 5679 5679 5679 5679 5678 5678 5677 5676 5675 5674 5672 5671 5670
5683 5684 5685 5686 5686 5686 5685 5684 5684 5684 5683 5682 5682 5681 5681 5680 5680 5679 5679 5678 5678 5678 5678 5677 5676 5675 5675 5674 5673 5672 5672 5672 5672 5671 5671 5670 5669 5667 5666 5665 5664 5663
5675 5677 5678 5679 5678 5679 5679 5678 5677 5677 5676 5676 5675 5674 5674 5673 5673 5672 5672 5671 5671 5671 5670 5669 5668 5667 5667 5666 5665 5665 5665 5665 5665 5664 5663 5663 5661 5660 5659 5658 5657 5656
5668 5670 5671 5672 5671 5671 5672 5671 5670 5669 5669 5669 5668 5668 5667 5666 5666 5665 5665 5664 5664 5663 5662 5661 5660 5659 5659 5658 5658 5658 5658 5657 5657 5657 5656 5655 5654 5653 5652 5651 5650 5649
5659 5660 5661 5663 5662 5662 5663 5663 5663 5662 5661 5661 5661 5660 5659 5659 5659 5658 5657 5656 5656 5655 5654 5653 5652 5652 5651 5651 5651 5650 5650 5650 5649 5649 5648 5647 5646 5645 5644 5643 5642 5641
5649 5649 5650 5651 5651 5651 5652 5654 5654 5653 5653 5653 5652 5652 5651 5651 5650 5650 5649 5648 5647 5647 5646 5646 5645 5644 5643 5643 5643 5642 5642 5642 5641 5641 5640 5638 5637 5637 5636 5635 5634 5633
Wind_Speed
42 42 42 41 42 42 42 42 42 42 43 43 44 44 45 45 45 45 45 45 45 44 43 42 42 42 42 42 43 43 43 43 44 45 45 45 46 45 45 46 46 46
40 40 41 41 42 42 42 43 43 44 45 45 46 46 46 46 47 47 46 47 46 45 45 44 43 43 43 44 44 44 44 44 45 46 46 46 46 46 46 46 46 46
37 38 38 39 40 41 41 42 43 43 44 45 45 46 47 47 48 48 48 48 47 46 46 45 44 44 44 45 45 44 44 45 46 46 46 46 46 46 46 46 46 45
37 37 38 38 39 39 40 41 41 40 41 42 43 44 45 46 48 48 48 48 47 46 46 45 45 44 45 45 44 44 44 45 46 46 46 46 47 47 46 46 45 43
38 38 39 39 39 40 41 40 40 39 39 40 40 42 43 45 46 46 46 46 46 45 44 44 44 44 45 45 44 44 44 45 46 46 46 46 47 46 45 44 43 43
39 39 40 41 41 41 41 41 40 40 39 39 39 39 41 42 43 43 43 44 44 44 44 44 45 45 45 45 44 44 44 45 46 46 46 46 47 46 45 44 43 44
41 41 42 42 42 42 42 42 41 41 40 40 40 40 40 41 41 42 43 44 45 45 46 46 46 45 45 45 44 43 43 44 46 47 47 47 47 46 44 43 44 45
44 44 44 44 43 43 43 43 43 43 43 43 42 42 42 43 43 44 45 46 46 46 46 46 45 45 45 45 44 43 44 45 47 48 48 48 47 45 44 44 45 46
46 46 46 46 45 44 44 44 45 45 45 45 45 45 45 45 46 46 46 46 46 46 45 45 45 45 45 45 45 45 45 47 48 48 48 48 47 45 45 46 47 47
46 47 48 48 47 46 46 47 47 47 47 46 47 47 47 47 47 47 47 47 47 46 45 45 45 46 46 46 47 47 47 48 49 49 48 48 47 46 46 47 47 47
47 48 48 49 49 49 48 48 48 48 48 48 48 48 48 48 48 48 48 48 47 46 46 46 46 47 48 48 48 49 49 49 49 49 49 48 47 47 47 47 47 47
49 50 50 50 51 50 50 50 49 49 49 49 49 49 50 50 50 50 49 49 48 48 48 48 48 49 49 50 50 50 50 50 50 50 49 48 48 48 47 47 47 47
52 52 52 52 52 52 51 51 51 51 51 51 51 51 51 51 51 51 51 51 50 51 50 51 51 51 51 51 51 51 52 52 51 50 49 48 48 48 48 48 48 47
58 55 54 54 54 53 53 52 52 52 52 52 53 53 53 53 53 53 53 53 53 53 53 53 53 53 53 52 52 53 53 53 52 51 49 48 48 48 49 49 48 48
61 59 57 57 57 56 55 54 54 54 54 54 55 55 55 55 55 55 55 55 55 55 55 55 55 55 54 53 54 54 54 53 52 50 48 48 48 49 50 50 49 48
62 61 59 59 59 60 59 59 58 58 57 56 57 57 58 58 58 57 57 57 57 57 57 57 57 56 55 55 55 55 55 53 51 50 48 49 50 51 51 51 50 49
60 60 59 60 61 62 62 62 62 62 61 60 59 59 60 60 60 59 59 60 60 60 60 59 59 57 57 56 56 56 55 53 51 50 49 50 51 52 52 51 50 49
59 58 59 60 61 62 62 63 63 62 62 62 61 61 61 61 61 61 61 62 62 62 61 61 60 59 58 57 57 56 55 54 52 52 51 51 52 52 51 51 51 50
59 58 59 60 60 60 61 61 61 62 62 63 63 63 62 62 62 63 63 63 64 63 63 63 62 61 60 60 59 58 57 56 55 54 52 51 52 52 51 51 51 50
60 60 60 60 60 60 60 60 61 61 62 63 63 63 64 64 64 64 65 65 65 64 64 64 64 63 63 63 62 61 60 58 56 54 52 51 51 51 51 51 51 51
62 62 62 61 61 62 62 62 62 62 63 63 64 64 65 65 65 66 66 66 66 66 66 66 66 65 65 64 63 62 60 58 55 53 51 51 51 52 51 52 52 52
62 63 63 63 63 64 64 65 65 65 65 66 65 66 66 66 67 67 68 68 68 68 68 67 67 66 65 63 62 61 59 56 53 52 51 52 52 52 52 53 53 53
63 62 62 63 64 64 66 68 69 68 68 69 68 68 68 69 69 69 70 70 69 69 69 68 68 67 65 62 60 58 56 54 53 52 52 53 53 53 53 53 53 53
63 62 62 63 65 65 64 67 69 70 71 71 72 72 72 72 72 71 71 71 71 71 71 70 69 67 64 62 59 56 54 53 52 52 53 54 54 54 54 54 54 55
62 63 63 63 65 67 66 66 67 69 70 71 73 74 74 74 74 73 73 73 73 73 73 72 71 69 66 64 61 58 56 54 53 53 54 55 55 55 55 56 56 56
63 63 63 63 65 66 67 66 67 68 69 70 72 73 74 74 74 74 73 73 73 73 73 72 71 69 68 66 63 60 58 56 55 54 55 55 55 56 56 57 57 57
Wind_Direction
265 265 264 263 262 262 263 265 266 267 269 271 273 274 274 275 276 277 279 279 279 278 277 278 279 280 280 281 282 283 284 285 286 287 287 288 288 288 290 292 293 294
264 265 265 265 264 264 264 264 264 264 266 268 270 271 273 274 275 276 277 278 278 276 276 277 278 278 279 280 280 281 283 284 285 285 284 285 286 287 288 290 292 294
263 264 265 266 266 266 266 265 264 264 265 266 268 269 270 271 273 274 275 276 276 276 276 276 277 277 278 278 279 280 281 282 282 282 282 283 284 286 287 289 291 294
261 262 263 264 266 266 267 267 267 267 267 266 267 267 267 268 269 271 272 274 275 275 276 276 276 276 276 277 277 278 279 279 280 280 280 281 283 285 286 288 291 294
260 262 263 264 265 266 267 268 269 269 268 267 266 265 265 265 266 268 270 272 274 275 275 275 275 274 275 275 276 277 277 278 278 278 279 280 282 284 286 288 291 293
261 263 264 265 265 266 267 269 270 270 269 268 267 265 264 264 265 267 269 270 271 272 273 273 273 273 274 274 275 275 275 276 277 277 278 279 281 284 286 288 290 291
261 262 264 264 265 266 267 269 270 270 269 267 266 264 264 264 265 267 268 269 270 270 271 272 273 273 274 274 274 274 275 275 276 277 278 279 281 284 286 287 288 290
260 261 263 264 265 265 267 268 268 269 268 266 266 265 265 265 266 267 268 269 270 271 272 273 273 274 274 273 273 273 274 275 275 277 278 280 282 283 285 286 287 289
260 261 262 263 264 265 266 267 267 267 267 266 266 266 267 267 268 269 269 270 271 272 272 273 274 273 273 272 272 273 273 274 275 277 279 281 282 283 284 285 286 288
260 261 262 263 263 264 265 266 266 266 267 267 267 267 268 269 269 270 271 271 271 272 272 273 273 272 271 271 271 272 273 275 277 278 280 281 282 283 283 283 285 287
260 261 262 263 263 264 264 265 266 267 267 268 268 269 269 269 270 270 271 270 270 270 271 271 271 271 270 271 271 273 274 276 278 279 280 281 282 282 282 282 284 286
259 259 260 261 263 263 264 265 266 267 268 268 269 269 269 270 270 270 270 270 270 270 271 271 271 271 272 272 273 274 275 276 278 279 280 281 281 281 280 281 283 286
257 258 259 260 261 262 263 264 265 266 267 268 268 269 269 269 269 270 270 269 270 270 272 272 273 273 273 273 274 274 275 276 277 278 279 280 280 279 279 281 283 286
258 258 259 259 259 260 261 262 263 264 265 266 267 268 268 269 269 269 269 270 270 271 272 272 273 273 273 273 273 274 274 275 276 278 279 279 279 279 280 282 284 285
258 258 258 258 258 258 259 260 262 263 263 264 265 266 267 267 268 269 269 270 270 270 271 272 272 273 273 273 273 274 274 275 277 278 279 279 279 279 281 283 283 283
257 257 257 256 256 256 257 258 260 261 262 262 263 263 264 265 266 267 268 269 269 270 270 271 272 273 273 273 273 274 275 276 278 279 279 279 280 281 281 282 282 281
258 257 256 255 254 255 255 256 257 259 259 260 261 261 262 263 265 266 267 268 269 270 271 271 272 273 273 273 274 275 276 277 278 279 279 280 281 280 280 280 280 279
259 258 256 254 254 254 254 255 256 257 258 258 259 260 261 262 264 265 266 268 269 269 270 271 272 273 274 275 275 276 277 277 278 278 279 279 279 278 278 279 278 277
260 258 256 255 254 254 254 255 256 256 257 258 258 260 261 262 263 265 266 267 268 269 270 272 273 274 275 276 277 277 277 277 277 277 278 277 276 276 276 277 276 276
261 259 257 255 255 255 254 255 255 255 256 257 258 259 261 262 263 264 266 267 268 269 270 271 273 274 275 276 276 276 276 276 276 276 276 275 274 274 274 274 274 274
261 260 259 257 256 256 256 255 255 255 256 257 258 259 260 262 263 264 266 267 268 269 270 271 272 273 274 275 275 275 275 276 276 275 275 273 272 273 273 272 273 273
260 261 261 260 259 258 258 257 257 257 257 258 259 259 260 261 262 264 265 266 267 268 269 271 272 273 274 275 276 276 277 277 277 276 274 273 273 272 272 272 272 273
261 261 262 262 262 261 260 260 260 260 260 260 260 261 261 262 263 264 265 266 267 268 269 271 272 273 275 276 277 278 278 278 278 276 275 274 273 273 272 272 273 273
260 261 262 263 264 264 262 262 262 262 262 262 262 262 263 263 264 265 267 268 269 270 270 271 273 274 276 277 278 279 279 279 278 277 276 276 274 273 273 273 272 272
258 259 260 261 262 264 264 263 264 264 264 265 265 266 266 266 267 268 269 270 271 272 273 273 275 276 277 278 279 279 279 279 278 277 276 275 274 273 273 272 272 271
257 257 257 257 258 260 261 262 264 265 266 267 268 268 269 269 269 270 271 272 273 274 275 276 277 278 278 279 279 279 279 278 277 275 273 272 271 271 271 271 271 270